Location: Unspecified
(38.6830°S, 0.0000°E)
Time: 11:37:53
(UTC+00:00)

Envisat - Pass Details

Date: 31 May 2019
Orbit: 764 x 766 km, 98.1° (Epoch: 17 June)

Event Time Altitude Azimuth Distance (km) Brightness Sun altitude
Exits shadow 20:06:39 17° 311° (NW) 1,898 5.4 -38.3°
Drops below altitude 10° 20:07:49 10° 318° (NW) 2,310 5.8 -38.5°
Sets 20:10:14 0° 325° (NW) 3,228 6.6 -39.0°
